When you browse on this site, cookies collect data to enhance your experience and personalize the content and advertising you see.
Visit our Privacy Policy to learn more. By continuing to use the site, you agree to this use of cookies and data.

Hourly Weather Porto-Novo

Today, 4 July, Saturday

Time Temperature Precipitation Wind Pressure Humidity
00:00 +27°C° 0 mm 5 mps 758 mmHg 85%
01:00 +27°C° 0.8 mm 5 mps 757 mmHg 85%
02:00 +27°C° 0.8 mm 5 mps 757 mmHg 85%
03:00 +27°C° 0.8 mm 5 mps 757 mmHg 85%
04:00 +27°C° 0.8 mm 5 mps 757 mmHg 86%
05:00 +27°C° 0.8 mm 5 mps 757 mmHg 88%
06:00 +26°C° 0.8 mm 5 mps 757 mmHg 89%
07:00 +26°C° 4 mm 5 mps 757 mmHg 90%
08:00 +26°C° 4 mm 5 mps 758 mmHg 92%
09:00 +26°C° 4 mm 6 mps 758 mmHg 93%
10:00 +26°C° 3.6 mm 5 mps 758 mmHg 92%
11:00 +27°C° 3.6 mm 5 mps 758 mmHg 90%
12:00 +27°C° 3.6 mm 5 mps 758 mmHg 89%
13:00 +27°C° 2.9 mm 4 mps 758 mmHg 90%
14:00 +26°C° 2.9 mm 4 mps 757 mmHg 91%
15:00 +26°C° 2.9 mm 3 mps 757 mmHg 92%
16:00 +26°C° 15.3 mm 4 mps 757 mmHg 93%
17:00 +24°C° 15.3 mm 6 mps 757 mmHg 95%
18:00 +24°C° 15.3 mm 7 mps 757 mmHg 96%
19:00 +24°C° 2.1 mm 6 mps 758 mmHg 94%
20:00 +25°C° 2.1 mm 5 mps 758 mmHg 93%
21:00 +26°C° 2.1 mm 5 mps 759 mmHg 91%
22:00 +26°C° 0.1 mm 4 mps 758 mmHg 91%
23:00 +26°C° 0.1 mm 4 mps 758 mmHg 91%

Tomorrow, 5 July, Sunday

Time Temperature Precipitation Wind Pressure Humidity
00:00 +25°C° 0.1 mm 4 mps 758 mmHg 91%
01:00 +25°C° 0.1 mm 4 mps 758 mmHg 91%
02:00 +25°C° 0.1 mm 4 mps 758 mmHg 90%
03:00 +25°C° 0.1 mm 4 mps 757 mmHg 90%
04:00 +25°C° 0.1 mm 4 mps 758 mmHg 90%
05:00 +25°C° 0.1 mm 3 mps 758 mmHg 91%
06:00 +25°C° 0.1 mm 3 mps 758 mmHg 91%
07:00 +26°C° 0.2 mm 3 mps 758 mmHg 89%
08:00 +26°C° 0.2 mm 2 mps 759 mmHg 88%
09:00 +27°C° 0.2 mm 2 mps 759 mmHg 86%
10:00 +27°C° 0.4 mm 2 mps 759 mmHg 86%
11:00 +27°C° 0.4 mm 2 mps 759 mmHg 87%
12:00 +26°C° 0.4 mm 3 mps 759 mmHg 87%
13:00 +26°C° 0.3 mm 3 mps 758 mmHg 88%
14:00 +26°C° 0.3 mm 3 mps 758 mmHg 88%
15:00 +26°C° 0.3 mm 3 mps 757 mmHg 88%
16:00 +26°C° 0 mm 2 mps 757 mmHg 89%
17:00 +26°C° 0 mm 2 mps 757 mmHg 89%
18:00 +26°C° 0 mm 2 mps 758 mmHg 90%
19:00 +26°C° 0 mm 1 mps 758 mmHg 89%
20:00 +25°C° 0 mm 1 mps 758 mmHg 89%
21:00 +25°C° 0 mm 1 mps 759 mmHg 89%
22:00 +25°C° 0 mm 2 mps 758 mmHg 89%
23:00 +25°C° 0 mm 2 mps 758 mmHg 89%

Day after tomorrow, 6 July, Monday

Time Temperature Precipitation Wind Pressure Humidity
00:00 +25°C° 0 mm 2 mps 758 mmHg 89%
01:00 +25°C° 0 mm 2 mps 758 mmHg 90%
02:00 +25°C° 0 mm 2 mps 757 mmHg 91%
03:00 +25°C° 0 mm 2 mps 757 mmHg 91%
04:00 +25°C° 0.1 mm 2 mps 757 mmHg 92%
05:00 +25°C° 0.1 mm 2 mps 757 mmHg 93%
06:00 +25°C° 0.1 mm 2 mps 758 mmHg 94%
07:00 +26°C° 0.5 mm 2 mps 758 mmHg 89%
08:00 +27°C° 0.5 mm 2 mps 759 mmHg 85%
09:00 +28°C° 0.5 mm 3 mps 759 mmHg 80%
10:00 +29°C° 0.7 mm 3 mps 759 mmHg 77%
11:00 +30°C° 0.7 mm 3 mps 758 mmHg 75%
12:00 +32°C° 0.7 mm 4 mps 758 mmHg 72%
13:00 +30°C° 1 mm 4 mps 757 mmHg 73%
14:00 +30°C° 1 mm 4 mps 757 mmHg 74%
15:00 +30°C° 1 mm 4 mps 756 mmHg 74%
16:00 +29°C° 0.2 mm 4 mps 756 mmHg 78%
17:00 +28°C° 0.2 mm 4 mps 756 mmHg 81%
18:00 +27°C° 0.2 mm 4 mps 757 mmHg 84%
19:00 +27°C° 0 mm 4 mps 757 mmHg 84%
20:00 +27°C° 0 mm 4 mps 757 mmHg 85%
21:00 +27°C° 0 mm 5 mps 758 mmHg 85%
22:00 +27°C° 0 mm 4 mps 758 mmHg 85%
23:00 +27°C° 0 mm 4 mps 757 mmHg 86%

7 July, Tuesday

Time Temperature Precipitation Wind Pressure Humidity
00:00 +27°C° 0 mm 4 mps 757 mmHg 86%
01:00 +26°C° 0 mm 4 mps 757 mmHg 86%
02:00 +26°C° 0 mm 4 mps 757 mmHg 86%
03:00 +26°C° 0 mm 4 mps 757 mmHg 85%
04:00 +26°C° 0.1 mm 4 mps 757 mmHg 86%
05:00 +26°C° 0.1 mm 3 mps 757 mmHg 87%
06:00 +26°C° 0.1 mm 3 mps 757 mmHg 88%
07:00 +27°C° 0.2 mm 4 mps 758 mmHg 83%
08:00 +28°C° 0.2 mm 4 mps 758 mmHg 78%
09:00 +29°C° 0.2 mm 5 mps 759 mmHg 73%
10:00 +30°C° 0 mm 5 mps 758 mmHg 71%
11:00 +30°C° 0 mm 6 mps 758 mmHg 69%
12:00 +32°C° 0 mm 6 mps 757 mmHg 67%
13:00 +30°C° 0 mm 6 mps 756 mmHg 68%
14:00 +30°C° 0 mm 6 mps 756 mmHg 68%
15:00 +30°C° 0 mm 6 mps 755 mmHg 68%
16:00 +29°C° 0 mm 5 mps 756 mmHg 72%
17:00 +28°C° 0 mm 5 mps 756 mmHg 75%
18:00 +27°C° 0 mm 4 mps 756 mmHg 78%
19:00 +27°C° 0 mm 4 mps 756 mmHg 79%
20:00 +27°C° 0 mm 4 mps 757 mmHg 81%
21:00 +27°C° 0 mm 4 mps 758 mmHg 82%
22:00 +27°C° 0 mm 4 mps 758 mmHg 83%
23:00 +26°C° 0 mm 4 mps 758 mmHg 85%

8 July, Wednesday

Time Temperature Precipitation Wind Pressure Humidity
00:00 +26°C° 0 mm 3 mps 758 mmHg 86%
01:00 +26°C° 0 mm 3 mps 757 mmHg 86%
02:00 +26°C° 0 mm 3 mps 757 mmHg 87%
03:00 +26°C° 0 mm 3 mps 757 mmHg 87%
04:00 +26°C° 0 mm 3 mps 757 mmHg 86%
05:00 +26°C° 0 mm 4 mps 757 mmHg 86%
06:00 +26°C° 0 mm 4 mps 757 mmHg 85%
07:00 +27°C° 0 mm 4 mps 758 mmHg 82%
08:00 +27°C° 0 mm 4 mps 758 mmHg 80%
09:00 +28°C° 0 mm 5 mps 758 mmHg 77%
10:00 +29°C° 0.1 mm 5 mps 758 mmHg 74%
11:00 +30°C° 0.1 mm 5 mps 757 mmHg 70%
12:00 +32°C° 0.1 mm 6 mps 757 mmHg 67%
13:00 +32°C° 0 mm 6 mps 756 mmHg 67%
14:00 +30°C° 0 mm 6 mps 756 mmHg 67%
15:00 +30°C° 0 mm 6 mps 756 mmHg 68%
16:00 +29°C° 0 mm 5 mps 756 mmHg 72%
17:00 +28°C° 0 mm 5 mps 756 mmHg 75%
18:00 +27°C° 0 mm 4 mps 756 mmHg 79%
19:00 +27°C° 0 mm 4 mps 757 mmHg 81%
20:00 +27°C° 0 mm 4 mps 757 mmHg 82%
21:00 +27°C° 0 mm 4 mps 758 mmHg 83%
22:00 +26°C° 0 mm 4 mps 758 mmHg 84%
23:00 +26°C° 0 mm 4 mps 758 mmHg 84%

9 July, Thursday

Time Temperature Precipitation Wind Pressure Humidity
00:00 +26°C° 0 mm 4 mps 758 mmHg 85%
01:00 +26°C° 0 mm 4 mps 758 mmHg 85%
02:00 +26°C° 0 mm 4 mps 757 mmHg 86%
03:00 +26°C° 0 mm 4 mps 757 mmHg 87%
04:00 +26°C° 0 mm 4 mps 757 mmHg 86%
05:00 +26°C° 0 mm 4 mps 758 mmHg 86%
06:00 +26°C° 0 mm 4 mps 758 mmHg 85%
07:00 +27°C° 0 mm 4 mps 758 mmHg 81%
08:00 +28°C° 0 mm 4 mps 759 mmHg 76%
09:00 +29°C° 0 mm 4 mps 760 mmHg 72%
10:00 +30°C° 0 mm 4 mps 759 mmHg 69%
11:00 +30°C° 0 mm 5 mps 759 mmHg 66%
12:00 +32°C° 0 mm 5 mps 758 mmHg 63%
13:00 +32°C° 0 mm 5 mps 758 mmHg 64%
14:00 +32°C° 0 mm 5 mps 757 mmHg 64%
15:00 +32°C° 0 mm 6 mps 757 mmHg 65%
16:00 +29°C° 0 mm 5 mps 757 mmHg 70%
17:00 +28°C° 0 mm 5 mps 757 mmHg 74%
18:00 +27°C° 0 mm 4 mps 757 mmHg 79%
19:00 +27°C° 0 mm 5 mps 758 mmHg 80%
20:00 +27°C° 0 mm 5 mps 758 mmHg 81%
21:00 +27°C° 0 mm 5 mps 759 mmHg 83%
22:00 +27°C° 0 mm 5 mps 758 mmHg 83%
23:00 +27°C° 0 mm 4 mps 758 mmHg 83%
Show more